Canefield, Dominica

4:42 AM AST on December 17, 2017 (GMT -0400)
Canefield

Weather History for TDCF - November, 2012

Change the Weather History Date:

Sunday, November 11, 2012

  Actual Average Record
Temperature  
Mean Temperature 80 °F -  
Max Temperature 90 °F 85 °F 92 °F (2016)
Min Temperature 71 °F 73 °F 71 °F (2010)
Cooling Degree Days 16    
Growing Degree Days 30 (Base 50)    
Moisture  
Dew Point 73 °F    
Average Humidity 71    
Maximum Humidity 88    
Minimum Humidity 58    
Precipitation  
Precipitation 0.00 in - - ()
Sea Level Pressure  
Sea Level Pressure 29.86 in    
Wind  
Wind Speed 3 mph ()    
Max Wind Speed 8 mph    
Max Gust Speed -    
Visibility 8.2 miles    
Events Rain    
Averages and records for this station are not official NWS values.
T = Trace of Precipitation, MM = Missing Value Source: Averaged Metar Reports

Daily Weather History Graph

Daily Weather History Graph

Search for Another Location

Airport or City:

Trip Planner

Search our weather history database for the weather conditions in past years. The results will help you decide how hot, cold, wet, or windy it might be!

Date:

Astronomy

Nov. 11, 2012 Rise Set
Actual Time 6:06 AM AST 5:32 PM AST
Civil Twilight 5:43 AM AST 5:55 PM AST
Nautical Twilight 5:17 AM AST 6:21 PM AST
Astronomical Twilight 4:52 AM AST 6:47 PM AST
Moon 3:34 AM AST (11/11) 3:38 PM AST (11/11)
Length of Visible Light 12h 11m
Length of Day
11h 26m
Waning Crescent, 7% of the Moon is Illuminated
Nov 11
Waning Crescent
Nov 13
New
Nov 20
First Quarter
Nov 28
Full
Dec 6
Last Quarter

Hourly Weather History & Observations

Time (AST) Temp. Heat Index Dew Point Humidity Pressure Visibility Wind Dir Wind Speed Gust Speed Precip Events Conditions
6:00 AM 71.6 °F - 68.0 °F 88% 29.86 in 6.2 mi SE 3.5 mph - N/A   Mostly Cloudy
7:00 AM 75.2 °F - 69.8 °F 83% 29.86 in 6.2 mi SSE 5.8 mph - N/A   Mostly Cloudy
8:00 AM 83 °F - 72 °F 61% 29.89 in 19 mi SE 2.3 mph - -   Partly Cloudy
8:00 AM 82.4 °F 87.2 °F 71.6 °F 70% 29.89 in 6.2 mi SE 2.3 mph - N/A   Mostly Cloudy
9:00 AM 86.0 °F 90.4 °F 69.8 °F 58% 29.92 in 6.2 mi North 2.3 mph - N/A   Mostly Cloudy
10:00 AM 86.0 °F 93.4 °F 73.4 °F 66% 29.92 in 6.2 mi West 2.3 mph - N/A Rain Light Rain Showers
11:00 AM 87 °F - 74 °F 58% 29.91 in 16 mi West 3.5 mph - -   Mostly Cloudy
11:00 AM 87.8 °F 95.6 °F 73.4 °F 62% 29.89 in 6.2 mi West 3.5 mph - N/A   Mostly Cloudy
12:00 PM 89.6 °F 102.2 °F 77.0 °F 66% 29.86 in 6.2 mi WSW 2.3 mph - N/A   Mostly Cloudy
1:00 PM 86.0 °F 93.4 °F 73.4 °F 66% 29.86 in 6.2 mi South 8.1 mph - N/A   Mostly Cloudy
2:00 PM 84 °F - 74 °F 65% 29.84 in 15 mi South 6.9 mph - - Rain Light Rain Showers
2:00 PM 84.2 °F 90.9 °F 73.4 °F 70% 29.83 in 6.2 mi South 6.9 mph - N/A Rain Light Rain Showers
3:00 PM 84.2 °F 90.9 °F 73.4 °F 70% 29.83 in 6.2 mi West 2.3 mph - N/A   Mostly Cloudy
4:00 PM 84.2 °F 90.9 °F 73.4 °F 70% 29.80 in 6.2 mi WNW 3.5 mph - N/A Rain Light Rain Showers
5:00 PM 78 °F - 73 °F 80% 29.88 in 12 mi SSE 3.5 mph - - Rain Light Rain Showers
5:00 PM 80.6 °F 84.6 °F 71.6 °F 74% 29.83 in 6.2 mi SE 5.8 mph - N/A   Mostly Cloudy
6:00 PM 80.6 °F 85.4 °F 73.4 °F 79% 29.83 in 6.2 mi SE 5.8 mph - N/A   Mostly Cloudy
7:00 PM 78.8 °F - 73.4 °F 83% 29.86 in 6.2 mi South 2.3 mph - N/A Rain Light Rain Showers
8:00 PM 78.8 °F - 73.4 °F 83% 29.86 in 6.2 mi SSE 3.5 mph - N/A   Mostly Cloudy